Weather History for KNCA - March, 2012

Change the Weather History Date:

Friday, March 30, 2012

  Actual Average Record
Temperature  
Mean Temperature 65 °F -  
Max Temperature 77 °F 67 °F 82 °F (1998)
Min Temperature 55 °F 45 °F 32 °F (2007)
Growing Degree Days 15 (Base 50)    
Moisture  
Dew Point 59 °F    
Average Humidity 78    
Maximum Humidity 97    
Minimum Humidity 62    
Precipitation  
Precipitation 0.19 in - - ()
Sea Level Pressure  
Sea Level Pressure 29.95 in    
Wind  
Wind Speed 9 mph (ESE)    
Max Wind Speed 13 mph    
Max Gust Speed -    
Visibility 9 miles    
Events Rain , Thunderstorm    
Averages and records for this station are not official NWS values.
T = Trace of Precipitation, MM = Missing Value Source: NWS Daily Summary

Daily Weather History Graph

Daily Weather History Graph

Search for Another Location

Airport or City:

Trip Planner

Search our weather history database for the weather conditions in past years. The results will help you decide how hot, cold, wet, or windy it might be!

Date:

Astronomy

Mar. 30, 2012 Rise Set
Actual Time 6:58 AM EDT 7:29 PM EDT
Civil Twilight 6:33 AM EDT 7:55 PM EDT
Nautical Twilight 6:03 AM EDT 8:24 PM EDT
Astronomical Twilight 5:33 AM EDT 8:55 PM EDT
Moon 12:13 PM EDT (3/30) 1:53 AM EDT (3/30)
Length of Visible Light 13h 21m
Length of Day
12h 30m
Waxing Crescent, 49% of the Moon is Illuminated
Mar 30
Waxing Crescent
Mar 30
First Quarter
Apr 6
Full
Apr 13
Last Quarter
Apr 21
New

Hourly Weather History & Observations

Time (EDT) Temp. Dew Point Humidity Pressure Visibility Wind Dir Wind Speed Gust Speed Precip Events Conditions
12:56 AM 59.0 °F 48.9 °F 69% 29.97 in 10.0 mi East 10.4 mph - N/A   Clear
1:56 AM 59.0 °F 46.9 °F 64% 29.97 in 10.0 mi East 11.5 mph - N/A   Scattered Clouds
2:56 AM 59.0 °F 46.9 °F 64% 29.96 in 10.0 mi East 9.2 mph - N/A   Partly Cloudy
3:56 AM 59.0 °F 46.0 °F 62% 29.96 in 10.0 mi ENE 6.9 mph - N/A   Scattered Clouds
4:56 AM 57.0 °F 48.0 °F 72% 29.97 in 10.0 mi NE 5.8 mph - N/A   Mostly Cloudy
5:56 AM 55.9 °F 48.0 °F 75% 29.99 in 10.0 mi NNE 5.8 mph - N/A   Partly Cloudy
6:32 AM 57.2 °F 48.2 °F 72% 29.99 in 10.0 mi NE 5.8 mph - N/A   Mostly Cloudy
6:49 AM 55.4 °F 48.2 °F 77% 29.99 in 10.0 mi NE 6.9 mph - N/A   Scattered Clouds
6:56 AM 57.0 °F 48.9 °F 74% 30.00 in 10.0 mi NE 6.9 mph - N/A   Partly Cloudy
7:56 AM 59.0 °F 50.0 °F 72% 30.01 in 10.0 mi NE 4.6 mph - N/A   Scattered Clouds
8:56 AM 63.0 °F 52.0 °F 67% 30.01 in 10.0 mi East 9.2 mph - N/A   Scattered Clouds
9:35 AM 66.2 °F 53.6 °F 64% 30.01 in 10.0 mi East 10.4 mph - N/A   Mostly Cloudy
9:56 AM 66.9 °F 54.0 °F 63% 30.02 in 9.0 mi ESE 5.8 mph - N/A   Overcast
10:56 AM 72.0 °F 59.0 °F 64% 30.03 in 10.0 mi ESE 8.1 mph - N/A   Mostly Cloudy
11:56 AM 73.0 °F 63.0 °F 71% 30.01 in 10.0 mi ESE 11.5 mph - N/A   Overcast
12:07 PM - - N/A% - - North - - N/A   Unknown
12:41 PM 75.2 °F 64.4 °F 69% 29.99 in 10.0 mi ESE 11.5 mph - N/A   Mostly Cloudy
12:56 PM 75.9 °F 64.0 °F 67% 29.99 in 10.0 mi ESE 10.4 mph - N/A   Mostly Cloudy
1:56 PM 75.0 °F 64.9 °F 71% 29.97 in 10.0 mi ESE 12.7 mph - N/A   Overcast
2:46 PM 75.2 °F 64.4 °F 69% 29.93 in 9.0 mi SE 11.5 mph - N/A   Overcast
2:56 PM 75.0 °F 64.9 °F 71% 29.94 in 10.0 mi SE 12.7 mph - N/A   Mostly Cloudy
3:10 PM 75.2 °F 66.2 °F 73% 29.92 in 10.0 mi SE 12.7 mph - N/A   Mostly Cloudy
3:45 PM 75.2 °F 66.2 °F 73% 29.92 in 10.0 mi ESE 11.5 mph - N/A   Overcast
3:56 PM 73.9 °F 64.9 °F 73% 29.93 in 10.0 mi ESE 11.5 mph - N/A   Mostly Cloudy
4:56 PM 75.9 °F 66.0 °F 71% 29.91 in 10.0 mi SE 9.2 mph - N/A   Clear
5:56 PM 72.0 °F 64.9 °F 78% 29.91 in 10.0 mi SE 12.7 mph - N/A   Clear
6:15 PM 71.6 °F 64.4 °F 78% 29.90 in 10.0 mi SSE 12.7 mph - N/A Thunderstorm Thunderstorm
6:30 PM 69.8 °F 64.4 °F 83% 29.90 in 10.0 mi SE 12.7 mph - N/A   Clear
6:46 PM 69.8 °F 64.4 °F 83% 29.90 in 10.0 mi SSE 10.4 mph - N/A Thunderstorm Thunderstorm
6:56 PM 68.0 °F 64.0 °F 87% 29.92 in 9.0 mi SE 9.2 mph - N/A Thunderstorm Thunderstorm
7:12 PM 68.0 °F 64.4 °F 88% 29.94 in 9.0 mi SSE 6.9 mph - N/A   Overcast
7:32 PM 66.2 °F 64.4 °F 94% 29.94 in 5.0 mi Calm Calm - 0.01 in Rain Rain
7:56 PM 66.9 °F 64.9 °F 93% 29.93 in 6.0 mi SSE 3.5 mph - 0.04 in Rain Light Rain
8:06 PM 66.2 °F 64.4 °F 94% 29.93 in 1.8 mi East 4.6 mph - 0.13 in Rain Rain
8:16 PM 66.2 °F 64.4 °F 94% 29.92 in 3.0 mi ESE 8.1 mph - 0.15 in Rain Light Rain
8:25 PM 66.2 °F 64.4 °F 94% 29.92 in 7.0 mi ESE 6.9 mph - 0.15 in Rain , Thunderstorm Light Thunderstorms and Rain
8:56 PM 66.9 °F 64.9 °F 93% 29.94 in 7.0 mi ESE 6.9 mph - 0.15 in Thunderstorm Thunderstorm
9:37 PM 66.2 °F 64.4 °F 94% 29.93 in 6.0 mi East 4.6 mph - N/A   Scattered Clouds
9:56 PM 66.0 °F 64.0 °F 93% 29.95 in 8.0 mi ENE 5.8 mph - N/A   Mostly Cloudy
10:56 PM 66.0 °F 63.0 °F 90% 29.93 in 9.0 mi ESE 4.6 mph - N/A   Clear
11:31 PM - - N/A% - - North - - N/A   Unknown
11:56 PM 63.0 °F 62.1 °F 97% 29.93 in 5.0 mi Calm Calm - N/A   Scattered Clouds